Regional Weather Roundup
Issued by NWS

Home | Current Version | Previous Version | Graphics & Text | Print | Product List | Glossary On
Versions: 1 2 3 4 5 6 7 8 9 10 11 12 13 14 15 16 17 18 19 20 21 22 23 24 25 26 27 28 29 30 31 32 33 34 35 36 37 38 39 40 41 42 43 44 45 46 47 48 49 50
910
ASUS45 KPSR 220710
RWRAZ

ARIZONA HOURLY REGIONAL WEATHER ROUNDUP
NATIONAL WEATHER SERVICE PHOENIX AZ
1200 AM MST SAT JUL 22 2017

NOTE: FAIR INDICATES FEW OR NO CLOUDS BELOW 12,000 FEET WITH NO
SIGNIFICANT WEATHER AND/OR OBSTRUCTIONS TO VISIBILITY.

AZZ001>003-036-220800-
NORTHWEST ARIZONA

CITY           SKY/WX    TMP DP  RH WIND       PRES   REMARKS
BULLHEAD CITY  CLEAR    100  59  25 CALM      29.76S HX 100
KINGMAN        PTCLDY    84  54  35 S10       30.01S
$$

AZZ004>008-015-016-018-220800-
NORTH CENTRAL ARIZONA

CITY           SKY/WX    TMP DP  RH WIND       PRES   REMARKS
GRAND CANYON   MOCLDY    61  56  83 CALM      30.28S
WILLIAMS       MOCLDY    61  59  94 SE7       30.29S
PRESCOTT       MOCLDY    70  60  70 CALM      30.16R
FLAGSTAFF      CLOUDY    58  57  97 CALM      30.30S
PAYSON         MOCLDY    68  64  88 CALM      30.19R
PAGE           MOCLDY    81  55  40 E8        30.11R
$$

AZZ009>014-017-220800-
NORTHEAST ARIZONA

CITY           SKY/WX    TMP DP  RH WIND       PRES   REMARKS
WINSLOW        PTCLDY    71  59  65 W7        30.14R
SAINT JOHNS    MOCLDY    69  62  78 CALM      30.18F
WINDOW ROCK    CLOUDY    67  56  67 CALM      30.26F
SHOW LOW       MOCLDY    63  57  82 S8        30.25F
$$

AZZ540-542>544-546-548-220800-
GREATER PHOENIX AREA

CITY           SKY/WX    TMP DP  RH WIND       PRES   REMARKS
PHOENIX        MOCLDY    89  66  46 SE6       29.85R
BUCKEYE        CLEAR     90  64  43 SE6       29.85S
LUKE AFB       PTCLDY    91  65  42 E3        29.84S
DEER VALLEY    MOCLDY    85  73  67 CALM      29.87S
SCOTTSDALE     MOCLDY    86  68  54 SW5       29.88S
MESA-GATEWAY   PTCLDY    86  70  58 E6        29.89R
$$

AZZ539-553-220800-
SOUTHWEST MARICOPA COUNTY AND PINAL COUNTY

CITY           SKY/WX    TMP DP  RH WIND       PRES   REMARKS
CASA GRANDE    MOCLDY    87  67  51 SW7       29.89F
GILA BEND      FAIR      93  62  34 CALM      29.83S
$$

AZZ503-504-507>509-220800-
SOUTHEAST ARIZONA

CITY           SKY/WX    TMP DP  RH WIND       PRES   REMARKS
TUCSON         MOCLDY    79  67  66 E10       30.01S
DAVIS-MONTHAN  MOCLDY    76  67  74 SE6       30.00S
NOGALES        CLOUDY    71  68  90 CALM      30.10F
SIERRA VISTA   CLOUDY    71  64  80 CALM      30.16R
DOUGLAS        MOCLDY    70  67  90 SE6       30.11F
SAFFORD        MOCLDY    76  71  85 CALM      30.01S
$$

AZZ532-220800-
SOUTHWEST ARIZONA

CITY           SKY/WX    TMP DP  RH WIND       PRES   REMARKS
YUMA           CLEAR     91  59  33 SW9       29.78S
$$

CAZ041-043-047-048-061-525>527-560>570-220800-
SOUTHERN CALIFORNIA

CITY           SKY/WX    TMP DP  RH WIND       PRES   REMARKS
DOWNTOWN L.A.  CLEAR     69  63  81 CALM      29.90S
L.A. AIRPORT   CLEAR     68  64  87 SW3       29.90S
SAN DIEGO      MOCLDY    70  64  81 CALM      29.94S
BURBANK        CLEAR     71  60  68 SE6       29.91S
ONTARIO        CLEAR     71  62  73 NW5       29.92S
RIVERSIDE      CLEAR     72  64  76 CALM      29.92S
PALM SPRINGS   CLEAR     90  53  28 CALM      29.82R
EL CENTRO NAS  CLEAR     91  61  36 S7        29.76F
IMPERIAL       PTCLDY    90  63  40 S3        29.74S
BLYTHE         CLEAR     96  58  27 SW14      29.78S
NEEDLES        CLEAR    101  57  23 SW14      29.78S HX 100
$$

NVZ020-UTZ003-220800-
SOUTHERN NEVADA-UTAH

CITY           SKY/WX    TMP DP  RH WIND       PRES   REMARKS
LAS VEGAS      CLEAR     94  42  16 S7        29.86S
SALT LAKE CITY CLEAR     81  51  35 SE9       30.03R
$$

NMZ009-TXZ055-220800-
NEW MEXICO-WEST TEXAS

CITY           SKY/WX    TMP DP  RH WIND       PRES   REMARKS
ALBUQUERQUE    PTCLDY    75  53  46 S10       30.17R
EL PASO        CLOUDY    75  65  70 SE6       30.08S
$$


........................KEY........................
SKY/WX - SKY CONDITION/WEATHER
TMP    - TEMPERATURE IN FAHRENHEIT
DP     - DEW POINT IN FAHRENHEIT
RH     - RELATIVE HUMIDITY IN PERCENT
WIND   - DIRECTION AND SPEED IN MILES PER HOUR (MPH)
VRB    - VARIABLE WIND DIRECTION
PRES   - MEAN SEA LEVEL PRESSURE IN INCHES OF MERCURY
         F - FALLING PRESSURE   R - RISING PRESSURE
         S - STEADY PRESSURE
VSB    - VISIBILITY IN MILES
HX     - HEAT INDEX IN FAHRENHEIT
WCI    - WIND CHILL INDEX IN FAHRENHEIT
TC     - TEMPERATURE IN CELSIUS WHICH IS ALSO KNOWN AS
         TEMPERATURE IN CENTIGRADE
AFB    - AIR FORCE BASE
         LUKE AFB IS LUKE AIR FORCE BASE
         DAVIS-MONTHAN IS DAVIS-MONTHAN AIR FORCE BASE
NAS    - NAVAL AIR STATION
         EL CENTRO NAS IS EL CENTRO NAVAL AIR STATION
N/A    - NOT AVAILABLE





USA.gov is the U.S. government's official web portal to all federal, state and local government web resources and services.